Location: Unspecified
(0.0000°N, 0.0000°E)
Time: 17:50:37
(UTC+00:00)

STARLINK 1062 - Pass Details

Date: 21 January 2020
Orbit: 548 x 551 km, 53.0° (Epoch: 17 January)

Event Time Altitude Azimuth Distance (km) Brightness Sun altitude
Rises 05:05:43 0° 211° (SSW) 2,713 7.1 -15.3°
Reaches altitude 10° 05:07:57 10° 209° (SSW) 1,817 6.2 -14.8°
Maximum altitude 05:12:04 74° 124° (ESE) 571 3.8 -13.8°
Drops below altitude 10° 05:16:10 10° 39° (NE) 1,808 6.5 -12.9°
Sets 05:18:23 0° 37° (NE) 2,698 7.4 -12.4°
